Wind_Speed
23 23 22 23 23 24 25 26 26 26 24 23 22 21 21 21 22 21 21 21 21 21 21 22 22 22 21 22 22 21 21 21 20 20 21 21 21 21 21 21 22 21 21
22 21 20 22 22 23 25 25 25 24 23 22 21 21 21 21 20 20 19 20 20 19 19 19 20 20 20 21 22 22 21 20 20 20 20 20 20 20 20 20 21 21 21
20 19 20 21 22 23 24 24 24 23 21 21 20 21 20 20 20 19 19 18 19 18 19 18 18 18 19 20 20 21 21 20 20 21 21 20 20 19 19 19 20 20 21
19 20 20 21 21 22 23 23 22 21 20 20 20 20 19 19 19 19 18 18 17 17 17 17 17 17 17 18 19 19 20 21 21 20 20 20 20 19 19 19 19 20 20
19 19 20 20 21 21 22 22 21 20 19 19 19 19 18 18 18 18 18 17 17 16 15 15 15 15 15 15 17 17 18 19 20 20 20 19 19 18 18 19 19 19 20
18 18 19 20 21 21 21 21 20 19 19 18 18 17 17 17 17 17 17 17 16 15 15 14 14 14 14 14 15 15 16 17 18 18 18 19 19 18 18 19 19 19 19
18 18 19 19 20 19 19 19 19 19 19 18 18 17 17 17 17 16 15 16 15 14 14 13 13 13 13 13 13 14 14 15 15 16 17 17 18 18 18 19 19 19 18
17 18 18 18 18 18 19 19 19 19 19 18 17 16 16 16 16 16 16 15 14 14 13 12 12 11 11 11 12 12 13 13 14 15 15 15 16 17 17 17 18 18 18
17 17 17 17 17 18 19 19 19 18 17 17 16 16 15 15 16 16 16 14 13 13 12 11 10 9 9 8 9 9 10 11 12 13 14 15 15 16 16 17 17 18 18
15 15 17 17 17 17 18 18 18 17 16 16 16 15 15 15 15 15 15 14 13 11 11 10 9 9 8 7 7 8 9 10 11 12 13 14 14 15 15 16 17 17 17
14 15 16 17 16 16 16 17 16 16 16 16 16 15 14 14 14 14 13 12 12 11 11 10 9 8 8 7 7 7 8 9 11 12 12 13 13 14 14 15 16 16 17
13 14 15 16 16 16 15 16 16 16 16 15 15 14 14 14 14 13 13 12 12 12 11 9 9 8 8 8 8 8 9 10 10 11 12 12 13 14 14 15 16 16 17
12 13 14 15 15 16 15 15 15 15 15 15 14 14 14 14 13 13 13 12 12 12 11 11 10 9 9 9 9 10 10 10 10 10 11 12 13 14 14 14 15 16 17
11 12 13 14 14 14 14 15 15 15 15 15 15 15 15 14 14 13 13 12 12 12 11 11 11 10 10 10 10 10 10 10 10 11 12 13 14 14 15 15 16 17 17
11 12 13 14 14 14 14 14 15 15 15 15 15 15 15 14 14 14 14 13 13 12 12 12 12 12 11 11 11 11 10 11 11 12 13 13 14 15 16 17 17 18 19
10 11 12 14 13 14 14 14 15 15 15 15 15 15 15 15 14 14 14 14 13 13 13 14 14 14 13 13 13 13 13 13 14 14 15 15 16 17 18 18 19 19 19
10 11 12 13 14 14 15 14 14 15 15 15 15 15 15 15 15 15 15 15 15 15 15 16 15 15 15 15 15 15 15 16 16 17 18 18 19 19 19 20 20 21 21
10 11 13 14 15 15 15 15 15 15 15 15 15 15 15 15 15 15 15 16 16 17 17 17 17 17 17 17 17 16 17 18 19 19 19 20 20 20 21 21 22 22 23
10 11 12 13 14 15 15 15 15 15 15 16 16 16 16 17 16 17 17 18 18 18 18 19 19 19 19 19 19 20 20 20 21 21 21 22 22 22 22 23 23 24 25
10 11 12 13 15 15 16 16 16 16 16 17 18 18 18 18 18 18 19 20 20 20 20 20 21 21 21 21 21 21 22 22 22 22 23 23 24 25 25 25 26 26 26
10 12 13 14 15 16 16 17 17 18 17 17 18 19 19 19 20 20 21 21 21 22 22 22 22 22 23 23 23 23 23 24 24 24 24 24 25 26 26 26 26 27 28
12 13 14 15 15 16 17 17 18 18 18 19 19 20 20 21 22 22 22 22 23 23 24 24 25 25 25 25 25 26 25 25 26 27 26 26 26 27 27 28 28 28 28
14 14 15 16 16 17 17 18 19 19 19 20 20 21 21 22 23 23 23 23 24 24 25 27 27 27 28 28 28 27 27 27 28 29 29 28 28 28 29 29 30 31 31
15 15 16 16 17 18 19 19 20 21 22 22 23 23 23 24 25 25 25 25 26 26 26 27 28 28 28 29 29 28 28 29 29 29 29 30 30 31 31 31 31 31 32
15 16 17 17 18 19 20 21 22 23 24 24 24 25 25 25 26 27 26 27 27 27 27 28 29 30 30 29 29 29 30 31 31 32 32 32 31 32 32 32 33 33 34
16 17 17 18 19 20 21 22 23 24 25 25 25 26 27 27 27 28 28 28 28 29 29 29 30 31 31 31 31 30 30 31 31 32 33 34 34 34 33 33 33 33 34
Wind_Direction
305 307 308 309 311 313 314 316 315 315 314 314 314 312 311 309 305 300 299 296 294 290 286 280 275 271 266 263 259 258 257 258 256 256 257 258 261 262 261 259 258 259 258
307 306 308 311 313 315 315 316 317 316 317 317 314 313 312 311 309 306 304 301 296 293 291 285 280 274 269 265 262 259 257 256 255 255 256 257 259 260 259 257 257 258 258
308 306 307 310 312 315 316 316 317 318 317 317 317 316 314 312 310 311 309 307 302 297 295 288 282 276 272 268 264 260 257 256 255 254 255 256 257 256 257 258 259 260 259
310 310 310 310 312 315 318 320 321 321 320 318 319 318 316 314 313 312 313 311 306 302 298 292 286 281 277 269 263 261 258 256 255 254 254 256 255 257 257 256 258 259 260
311 311 311 311 313 317 321 322 321 321 322 322 322 320 319 317 316 314 313 311 308 307 304 298 292 285 281 274 265 264 261 257 256 254 254 254 255 257 257 258 260 261 262
312 311 312 313 315 318 322 324 322 322 322 322 322 322 320 319 320 317 314 312 310 308 306 303 296 290 285 277 267 265 262 259 258 256 254 254 255 258 260 261 262 261 262
309 311 312 313 315 318 321 324 324 325 323 320 320 322 322 321 323 323 321 320 316 311 308 305 301 297 287 279 272 268 264 260 258 256 256 255 257 258 259 260 261 262 262
312 313 313 314 316 317 321 321 321 322 323 321 320 323 323 323 324 322 322 321 321 317 311 307 304 299 290 282 275 269 263 260 257 257 257 258 260 261 260 259 260 261 262
312 313 315 315 318 318 319 321 323 324 327 324 323 324 323 324 327 327 325 323 322 322 318 314 309 305 301 291 279 271 265 261 259 260 260 263 264 263 261 260 259 260 260
311 314 316 318 322 323 324 324 324 326 328 330 328 326 327 328 331 333 331 330 327 327 326 323 317 312 308 300 290 283 273 265 262 263 263 265 266 264 263 261 259 259 260
313 316 321 325 327 328 327 328 329 330 330 330 330 331 331 332 334 336 336 335 334 328 326 326 320 314 312 309 302 291 283 275 270 269 268 267 266 264 264 263 261 261 262
315 319 323 327 330 332 334 335 335 336 336 335 334 335 337 337 336 336 336 335 334 333 330 326 321 316 314 311 304 296 290 285 278 272 270 269 269 267 265 264 263 262 262
323 327 330 332 333 335 337 338 339 341 342 342 341 341 342 342 340 338 338 337 336 335 334 334 327 319 313 308 304 300 295 287 280 275 273 271 271 271 269 266 266 266 265
324 329 331 334 337 338 338 339 341 343 344 343 342 341 340 340 340 339 340 337 333 331 329 330 328 323 318 312 305 301 295 291 287 283 280 278 276 272 271 270 268 267 268
325 330 331 335 339 341 341 341 341 341 342 341 341 340 340 339 340 340 338 336 334 331 328 327 325 320 316 313 310 305 301 295 291 288 286 285 282 278 276 277 275 272 271
327 328 330 334 338 341 342 341 343 342 341 341 340 340 340 339 336 336 336 337 338 336 334 330 324 318 313 310 307 305 303 301 296 292 288 286 285 281 279 279 278 276 275
331 332 334 334 336 339 340 339 339 341 341 342 341 339 337 336 334 334 334 333 332 330 328 327 325 322 318 312 307 303 300 299 297 294 291 289 288 285 282 280 279 278 278
333 336 336 337 337 337 340 342 341 340 340 339 338 338 337 336 334 332 331 329 329 327 325 322 322 320 318 314 309 305 302 299 296 294 291 290 289 288 285 283 281 280 279
338 339 338 341 342 341 341 342 343 343 341 340 338 335 334 333 331 329 327 326 326 325 323 322 320 317 314 311 307 304 302 300 298 295 292 289 288 289 288 285 282 280 279
344 342 341 341 342 342 342 343 343 342 340 338 337 336 332 328 327 325 323 323 322 321 320 318 316 315 313 311 308 305 303 301 299 297 294 291 289 288 287 285 284 282 280
342 341 341 341 341 341 341 342 342 341 340 338 336 334 333 333 330 326 323 321 320 319 318 317 316 314 312 310 309 307 305 302 300 298 293 291 290 289 288 286 286 284 283
346 344 343 342 342 342 342 342 340 339 338 337 335 335 334 332 331 328 325 323 321 318 315 314 313 312 310 308 307 306 304 302 301 299 296 293 292 291 290 288 287 285 285
343 342 342 342 341 341 341 339 338 337 336 333 332 331 330 328 327 327 325 322 319 318 315 315 314 311 309 308 307 305 303 301 301 300 297 295 294 293 292 291 289 287 287
343 341 341 341 341 341 340 339 339 338 336 334 332 331 329 327 326 325 323 321 320 320 319 317 316 315 313 310 309 306 305 304 301 300 299 298 296 294 293 292 291 289 287
342 341 341 342 341 340 339 338 337 336 335 334 333 332 329 327 326 324 322 321 320 318 318 317 317 316 314 313 311 309 308 305 303 302 300 299 298 296 294 293 291 289 287
342 342 343 342 341 341 339 338 337 336 335 333 332 332 331 329 328 326 324 322 321 320 318 318 318 317 315 313 312 311 309 306 305 304 303 301 299 297 295 293 292 291 289
Height
5786 5783 5781 5778 5775 5772 5769 5765 5761 5757 5753 5749 5746 5742 5739 5736 5733 5731 5728 5726 5725 5723 5721 5721 5721 5721 5721 5722 5724 5725 5727 5729 5731 5733 5735 5736 5738 5740 5741 5743 5744 5746 5747
5782 5779 5777 5774 5771 5768 5764 5761 5757 5753 5749 5745 5742 5738 5735 5732 5729 5726 5723 5721 5719 5717 5716 5715 5715 5715 5715 5716 5717 5719 5721 5723 5725 5727 5729 5730 5732 5734 5735 5737 5738 5740 5741
5778 5775 5773 5770 5767 5764 5761 5757 5753 5749 5745 5742 5738 5735 5731 5728 5725 5722 5719 5717 5714 5713 5711 5710 5710 5709 5709 5710 5711 5713 5715 5717 5719 5721 5723 5725 5726 5728 5730 5731 5733 5734 5735
5774 5772 5769 5766 5763 5760 5757 5753 5749 5745 5742 5738 5735 5731 5728 5725 5721 5718 5715 5713 5711 5709 5707 5706 5705 5705 5705 5705 5706 5707 5709 5711 5713 5715 5717 5719 5721 5722 5724 5725 5727 5728 5730
5771 5768 5765 5762 5759 5756 5753 5749 5745 5742 5739 5735 5732 5728 5725 5722 5718 5715 5712 5710 5708 5706 5704 5702 5702 5701 5701 5701 5702 5703 5704 5706 5707 5709 5712 5714 5716 5717 5718 5720 5721 5722 5723
5767 5764 5762 5759 5756 5753 5749 5746 5742 5739 5736 5732 5729 5726 5722 5719 5715 5712 5710 5707 5705 5703 5701 5699 5698 5698 5698 5697 5697 5698 5699 5701 5703 5704 5707 5709 5710 5712 5713 5714 5715 5717 5718
5764 5761 5758 5755 5752 5749 5746 5743 5740 5736 5733 5730 5726 5723 5720 5716 5713 5710 5707 5705 5702 5700 5698 5697 5696 5695 5694 5694 5694 5695 5696 5697 5699 5700 5702 5703 5705 5706 5708 5709 5710 5711 5712
5761 5758 5755 5752 5749 5746 5743 5740 5737 5734 5730 5727 5724 5721 5718 5714 5711 5709 5706 5703 5700 5698 5697 5695 5693 5692 5691 5691 5691 5692 5693 5694 5695 5696 5698 5699 5700 5701 5702 5703 5704 5706 5707
5757 5755 5752 5749 5746 5743 5740 5737 5734 5731 5728 5725 5722 5719 5716 5713 5710 5707 5704 5701 5699 5697 5695 5693 5692 5690 5690 5689 5689 5689 5690 5691 5692 5693 5694 5695 5696 5696 5697 5698 5699 5700 5701
5754 5752 5749 5746 5743 5740 5738 5735 5732 5729 5726 5723 5720 5717 5714 5711 5708 5705 5703 5700 5698 5696 5694 5692 5690 5689 5688 5688 5687 5687 5688 5688 5689 5690 5690 5691 5692 5692 5693 5694 5694 5695 5696
5752 5750 5747 5744 5741 5738 5736 5733 5729 5727 5724 5721 5717 5715 5712 5710 5707 5704 5702 5699 5697 5695 5693 5691 5690 5688 5687 5686 5686 5686 5686 5686 5686 5687 5687 5687 5688 5688 5688 5689 5690 5690 5691
5749 5747 5745 5742 5740 5737 5734 5731 5728 5725 5722 5719 5716 5714 5711 5708 5706 5703 5701 5699 5697 5694 5692 5691 5689 5688 5686 5685 5685 5684 5683 5683 5683 5683 5684 5684 5684 5684 5684 5684 5685 5685 5685
5747 5745 5743 5741 5738 5735 5733 5730 5727 5724 5721 5718 5715 5713 5710 5708 5705 5703 5700 5698 5696 5694 5692 5690 5689 5687 5685 5684 5683 5682 5681 5681 5681 5681 5681 5681 5680 5680 5680 5680 5680 5680 5680
5746 5744 5742 5739 5737 5734 5731 5729 5726 5723 5720 5717 5715 5712 5710 5707 5705 5702 5700 5697 5695 5693 5691 5690 5688 5686 5684 5683 5682 5680 5679 5679 5678 5678 5677 5677 5677 5676 5676 5675 5675 5675 5675
5745 5743 5740 5738 5736 5733 5731 5728 5725 5722 5719 5717 5714 5711 5709 5707 5704 5701 5699 5696 5694 5692 5690 5689 5687 5685 5683 5682 5680 5679 5677 5676 5675 5675 5674 5673 5672 5672 5671 5670 5670 5670 5670
5743 5741 5739 5737 5735 5732 5730 5727 5724 5722 5719 5716 5713 5711 5708 5706 5703 5701 5698 5696 5693 5691 5689 5687 5685 5683 5681 5679 5678 5676 5675 5673 5672 5671 5670 5669 5668 5667 5666 5665 5665 5664 5663
5742 5740 5738 5736 5734 5731 5729 5726 5724 5721 5718 5715 5713 5710 5707 5705 5702 5699 5697 5695 5692 5690 5687 5685 5683 5680 5678 5676 5674 5673 5671 5669 5668 5666 5665 5664 5662 5661 5660 5659 5659 5658 5657
5741 5739 5737 5735 5733 5730 5728 5725 5722 5720 5717 5714 5712 5709 5706 5703 5700 5698 5695 5693 5690 5687 5685 5682 5680 5677 5675 5673 5671 5669 5666 5665 5663 5661 5659 5658 5656 5655 5654 5653 5652 5651 5650
5740 5739 5736 5734 5731 5729 5727 5724 5721 5718 5715 5713 5710 5707 5704 5701 5698 5695 5693 5690 5687 5684 5682 5679 5676 5673 5670 5668 5666 5664 5661 5659 5657 5655 5653 5651 5650 5648 5647 5646 5644 5643 5641
5739 5737 5735 5733 5730 5728 5725 5722 5719 5716 5713 5710 5707 5704 5701 5698 5695 5692 5689 5686 5683 5680 5677 5674 5671 5668 5665 5663 5660 5657 5655 5652 5650 5648 5646 5644 5642 5641 5639 5638 5636 5635 5633
5738 5736 5734 5731 5729 5726 5723 5720 5717 5714 5711 5708 5705 5701 5698 5695 5692 5689 5685 5682 5679 5675 5672 5669 5666 5663 5660 5657 5654 5651 5648 5646 5643 5641 5639 5636 5634 5632 5631 5629 5627 5626 5624
5737 5735 5733 5730 5727 5725 5721 5718 5715 5712 5709 5705 5702 5698 5695 5692 5688 5685 5681 5677 5674 5670 5666 5663 5660 5657 5654 5651 5647 5644 5642 5639 5636 5634 5631 5629 5626 5624 5622 5620 5618 5616 5614
5737 5734 5731 5729 5726 5723 5719 5716 5713 5709 5706 5702 5699 5695 5692 5688 5684 5680 5676 5672 5668 5665 5661 5657 5654 5650 5647 5643 5640 5637 5634 5631 5628 5625 5622 5619 5617 5615 5612 5610 5608 5606 5604
5735 5733 5730 5727 5724 5721 5717 5714 5711 5707 5703 5699 5696 5692 5688 5684 5680 5675 5671 5667 5663 5659 5655 5651 5648 5644 5640 5636 5632 5629 5626 5622 5619 5616 5613 5610 5607 5605 5602 5600 5598 5596 5594
5734 5731 5728 5725 5722 5719 5715 5712 5708 5704 5700 5696 5692 5688 5683 5679 5675 5670 5666 5662 5657 5653 5649 5645 5641 5637 5633 5628 5624 5621 5617 5613 5610 5607 5603 5600 5597 5594 5592 5589 5587 5585 5582
5732 5729 5726 5723 5720 5717 5713 5709 5705 5701 5697 5692 5688 5683 5679 5674 5669 5665 5660 5656 5651 5647 5643 5639 5634 5629 5625 5621 5617 5612 5608 5605 5601 5597 5593 5590 5587 5584 5581 5578 5575 5573 5570